,,Stat5,,Stat1,,Stat2,,Stat3,,Stat4,,Wind1,,Wind1,
time,status,PA1M_AVG,status,PR1M_SUM,status,RH1M_AVG,status,SR1M_AVG,status,TA1M_AVG,status,W1dAve1m,status,W1sAve1m,
2002-07-04, 00:00:00,VALID,920.033,VALID,0,VALID,95.6603,VALID,0.0169808,VALID,20.0359,VALID,104,VALID,1.12121,
2002-07-04, 00:01:00,VALID,920.033,VALID,0,VALID,95.4848,VALID,0,VALID,20.0263,VALID,105,VALID,1.09063,
2002-07-04, 00:02:01,VALID,920.053,VALID,0,VALID,94.9151,VALID,0,VALID,19.9999,VALID,108,VALID,1.10524,
2002-07-04, 00:03:01,VALID,920.06,VALID,0,VALID,94.7358,VALID,0.0169808,VALID,20.0459,VALID,114,VALID,0.647615,
2002-07-04, 00:04:00,VALID,920.06,VALID,0,VALID,94.7574,VALID,0,VALID,20.0874,VALID,108,VALID,0.459821,
2002-07-04, 00:05:00,VALID,920.055,VALID,0,VALID,94.6913,VALID,0,VALID,20.1301,VALID,75,VALID,0.470152,
2002-07-04, 00:06:01,VALID,920.044,VALID,0,VALID,94.5616,VALID,0,VALID,20.1167,VALID,47,VALID,0.683824,
2002-07-04, 00:07:00,VALID,920.034,VALID,0,VALID,94.6722,VALID,0,VALID,20.1207,VALID,52,VALID,0.774239,
2002-07-04, 00:08:01,VALID,920.026,VALID,0,VALID,94.6455,VALID,0.0169808,VALID,20.0812,VALID,54,VALID,0.667969,
2002-07-04, 00:09:01,VALID,920.021,VALID,0,VALID,94.6252,VALID,0,VALID,20.0394,VALID,56,VALID,0.453355,
2002-07-04, 00:10:01,VALID,920.044,VALID,0,VALID,94.807,VALID,0,VALID,20.0098,VALID,65,VALID,0.351758,
2002-07-04, 00:11:01,VALID,920.06,VALID,0,VALID,94.999,VALID,0.0339617,VALID,19.9972,VALID,77,VALID,0.281487,
2002-07-04, 00:12:01,VALID,920.069,VALID,0,VALID,95.1478,VALID,0,VALID,19.9977,VALID,85,VALID,0.138327,
2002-07-04, 00:13:00,VALID,920.079,VALID,0,VALID,95.2305,VALID,0,VALID,20.0039,VALID,85,VALID,0,
2002-07-04, 00:14:01,VALID,920.096,VALID,0,VALID,95.2419,VALID,0,VALID,20.0136,VALID,85,VALID,0,
2002-07-04, 00:15:01,VALID,920.068,VALID,0,VALID,95.1376,VALID,0,VALID,20.0036,VALID,60,VALID,0.398438,
2002-07-04, 00:16:00,VALID,920.063,VALID,0,VALID,95.0385,VALID,0.0169808,VALID,19.988,VALID,49,VALID,0.443623,
2002-07-04, 00:17:01,VALID,920.025,VALID,0,VALID,95.027,VALID,0.0169808,VALID,19.952,VALID,48,VALID,0.646382,
2002-07-04, 00:18:01,VALID,919.988,VALID,0,VALID,95.0041,VALID,0,VALID,19.907,VALID,48,VALID,0.54772,
2002-07-04, 00:19:01,VALID,919.982,VALID,0,VALID,95.13,VALID,0,VALID,19.865,VALID,48,VALID,0.651563,
2002-07-04, 00:20:01,VALID,919.972,VALID,0,VALID,95.378,VALID,0.0169808,VALID,19.8319,VALID,51,VALID,0.768945,
2002-07-04, 00:21:01,VALID,919.959,VALID,0,VALID,95.6717,VALID,0.0169808,VALID,19.8421,VALID,67,VALID,0.672822,
2002-07-04, 00:22:01,VALID,919.942,VALID,0,VALID,95.865,VALID,0,VALID,19.8456,VALID,72,VALID,0.606847,
2002-07-04, 00:23:01,VALID,919.953,VALID,0,VALID,96.0265,VALID,0,VALID,19.8521,VALID,72,VALID,0.47065,
2002-07-04, 00:24:01,VALID,919.974,VALID,0,VALID,96.0799,VALID,0.0509425,VALID,19.8314,VALID,72,VALID,0.40266,
2002-07-04, 00:25:01,VALID,919.969,VALID,0,VALID,96.0252,VALID,0.0339617,VALID,19.8033,VALID,72,VALID,0.533923,
2002-07-04, 00:26:01,VALID,919.935,VALID,0,VALID,95.9871,VALID,0.0169808,VALID,19.771,VALID,70,VALID,0.76647,
2002-07-04, 00:27:01,VALID,919.933,VALID,0,VALID,96.1664,VALID,0.0169808,VALID,19.7579,VALID,67,VALID,0.976151,
2002-07-04, 00:28:01,VALID,919.941,VALID,0,VALID,96.2452,VALID,0.0169808,VALID,19.7613,VALID,60,VALID,0.881757,
2002-07-04, 00:29:01,VALID,919.926,VALID,0,VALID,96.3088,VALID,0.0339617,VALID,19.7484,VALID,69,VALID,0.902679,
2002-07-04, 00:30:01,VALID,919.907,VALID,0,VALID,96.5135,VALID,0,VALID,19.7546,VALID,85,VALID,0.8625,
2002-07-04, 00:31:01,VALID,919.908,VALID,0,VALID,96.4309,VALID,0,VALID,19.7584,VALID,86,VALID,0.282907,
2002-07-04, 00:32:01,VALID,919.911,VALID,0,VALID,96.3673,VALID,0,VALID,19.7618,VALID,86,VALID,0,
2002-07-04, 00:33:01,VALID,919.889,VALID,0,VALID,96.3864,VALID,0.0169808,VALID,19.7549,VALID,86,VALID,0,
2002-07-04, 00:34:00,VALID,919.88,VALID,0,VALID,96.3838,VALID,0,VALID,19.7646,VALID,86,VALID,0.019848,
2002-07-04, 00:35:00,VALID,919.87,VALID,0,VALID,96.3558,VALID,-0.0169808,VALID,19.7748,VALID,82,VALID,0.0581826,
2002-07-04, 00:36:00,VALID,919.863,VALID,0,VALID,96.2872,VALID,0.0169808,VALID,19.7748,VALID,49,VALID,0.350507,
2002-07-04, 00:37:00,VALID,919.866,VALID,0,VALID,96.2503,VALID,0.0169808,VALID,19.7678,VALID,47,VALID,0.144942,
2002-07-04, 00:38:00,VALID,919.873,VALID,0,VALID,96.221,VALID,0,VALID,19.7877,VALID,47,VALID,0,
2002-07-04, 00:39:00,VALID,919.871,VALID,0,VALID,96.1015,VALID,-0.0169808,VALID,19.7877,VALID,47,VALID,0,
2002-07-04, 00:40:00,VALID,919.869,VALID,0,VALID,95.8586,VALID,0.0169808,VALID,19.7683,VALID,61,VALID,0.439453,
2002-07-04, 00:41:00,VALID,919.851,VALID,0,VALID,95.8345,VALID,0.0169808,VALID,19.729,VALID,76,VALID,0.729403,
2002-07-04, 00:42:00,VALID,919.84,VALID,0,VALID,96.0087,VALID,0,VALID,19.7102,VALID,81,VALID,0.800092,
2002-07-04, 00:43:00,VALID,919.833,VALID,0,VALID,96.1893,VALID,0,VALID,19.7002,VALID,88,VALID,0.708193,
2002-07-04, 00:44:00,VALID,919.81,VALID,0,VALID,96.3851,VALID,0,VALID,19.7035,VALID,103,VALID,0.770693,
2002-07-04, 00:45:00,VALID,919.782,VALID,0,VALID,96.4614,VALID,0,VALID,19.7037,VALID,120,VALID,0.89597,
2002-07-04, 00:46:00,VALID,919.762,VALID,0,VALID,96.5453,VALID,0,VALID,19.694,VALID,123,VALID,1.00992,
2002-07-04, 00:47:00,VALID,919.746,VALID,0,VALID,96.5021,VALID,-0.0169808,VALID,19.697,VALID,120,VALID,1.20703,
2002-07-04, 00:48:00,VALID,919.713,VALID,0,VALID,96.3953,VALID,-0.0509425,VALID,19.6975,VALID,119,VALID,1.12796,
2002-07-04, 00:49:00,VALID,919.683,VALID,0,VALID,96.2198,VALID,-0.0509425,VALID,19.7079,VALID,128,VALID,1.14754,
2002-07-04, 00:50:00,VALID,919.657,VALID,0,VALID,96.0557,VALID,-0.0169808,VALID,19.7246,VALID,136,VALID,0.6625,
2002-07-04, 00:51:00,VALID,919.654,VALID,0,VALID,95.9337,VALID,-0.0679233,VALID,19.7044,VALID,135,VALID,0.881155,
2002-07-04, 00:52:00,VALID,919.631,VALID,0,VALID,95.8116,VALID,-0.0679233,VALID,19.7206,VALID,125,VALID,0.882123,
2002-07-04, 00:53:00,VALID,919.602,VALID,0,VALID,95.9057,VALID,-0.0679233,VALID,19.7271,VALID,124,VALID,1.1647,
2002-07-04, 00:54:00,VALID,919.579,VALID,0,VALID,95.9413,VALID,-0.101885,VALID,19.7305,VALID,114,VALID,1.2084,
2002-07-04, 00:55:00,VALID,919.587,VALID,0,VALID,95.8154,VALID,-0.0849042,VALID,19.7044,VALID,114,VALID,1.24363,
2002-07-04, 00:56:00,VALID,919.573,VALID,0,VALID,95.7035,VALID,-0.0849042,VALID,19.6821,VALID,106,VALID,1.03526,
2002-07-04, 00:57:00,VALID,919.569,VALID,0,VALID,95.748,VALID,-0.0169808,VALID,19.6627,VALID,112,VALID,1.30695,
2002-07-04, 00:58:00,VALID,919.549,VALID,0,VALID,95.7976,VALID,-0.0849042,VALID,19.6528,VALID,120,VALID,1.28484,
2002-07-04, 00:59:00,VALID,919.54,VALID,0,VALID,95.8205,VALID,-0.0509425,VALID,19.6431,VALID,111,VALID,1.14241,
2002-07-04, 01:00:00,VALID,919.534,VALID,0,VALID,95.9222,VALID,-0.0509425,VALID,19.6371,VALID,110,VALID,1.10879,
2002-07-04, 01:01:00,VALID,919.536,VALID,0,VALID,95.8866,VALID,-0.0679233,VALID,19.6431,VALID,116,VALID,0.970881,
2002-07-04, 01:02:00,VALID,919.532,VALID,0,VALID,95.79,VALID,-0.0849042,VALID,19.6274,VALID,123,VALID,0.964614,
2002-07-04, 01:03:00,VALID,919.528,VALID,0,VALID,95.7264,VALID,-0.0339617,VALID,19.6239,VALID,117,VALID,1.14189,
2002-07-04, 01:04:00,VALID,919.519,VALID,0,VALID,95.6781,VALID,0.0339617,VALID,19.6065,VALID,122,VALID,0.872677,
2002-07-04, 01:05:00,VALID,919.533,VALID,0,VALID,95.6679,VALID,0.0509425,VALID,19.6132,VALID,122,VALID,0.842516,
2002-07-04, 01:06:00,VALID,919.524,VALID,0,VALID,95.6577,VALID,0,VALID,19.6031,VALID,103,VALID,0.913429,
2002-07-04, 01:07:00,VALID,919.526,VALID,0,VALID,95.5891,VALID,0.0169808,VALID,19.6135,VALID,86,VALID,1.18421,
2002-07-04, 01:08:00,VALID,919.508,VALID,0,VALID,95.4746,VALID,0.0509425,VALID,19.6065,VALID,81,VALID,1.25148,
2002-07-04, 01:09:00,VALID,919.498,VALID,0,VALID,95.4326,VALID,0.0339617,VALID,19.5998,VALID,90,VALID,1.46384,
2002-07-04, 01:10:00,VALID,919.503,VALID,0,VALID,95.4733,VALID,0.0169808,VALID,19.5772,VALID,109,VALID,1.1623,
2002-07-04, 01:11:00,VALID,919.503,VALID,0,VALID,95.6247,VALID,0.0339617,VALID,19.5581,VALID,126,VALID,1.08925,
2002-07-04, 01:12:00,VALID,919.494,VALID,0,VALID,95.6819,VALID,0.0509425,VALID,19.571,VALID,108,VALID,1.20519,
2002-07-04, 01:13:00,VALID,919.467,VALID,0,VALID,95.4746,VALID,0.0339617,VALID,19.5678,VALID,105,VALID,0.816512,
2002-07-04, 01:14:00,VALID,919.45,VALID,0,VALID,95.4441,VALID,0.0679233,VALID,19.6001,VALID,107,VALID,1.0568,
2002-07-04, 01:15:00,VALID,919.445,VALID,0,VALID,95.364,VALID,0.0509425,VALID,19.6292,VALID,110,VALID,1.25822,
2002-07-04, 01:16:00,VALID,919.427,VALID,0,VALID,95.1147,VALID,0.0169808,VALID,19.6485,VALID,113,VALID,1.06313,
2002-07-04, 01:17:00,VALID,919.388,VALID,0,VALID,94.8452,VALID,0.0339617,VALID,19.6292,VALID,113,VALID,1.37582,
2002-07-04, 01:18:00,VALID,919.388,VALID,0,VALID,94.4942,VALID,-0.0339617,VALID,19.6301,VALID,103,VALID,1.34523,
2002-07-04, 01:19:00,VALID,919.346,VALID,0,VALID,94.0224,VALID,-0.0849042,VALID,19.6341,VALID,98,VALID,0.780804,
2002-07-04, 01:20:00,VALID,919.315,VALID,0,VALID,93.9411,VALID,-0.0849042,VALID,19.6532,VALID,89,VALID,0.914453,
2002-07-04, 01:21:00,VALID,919.305,VALID,0,VALID,93.8215,VALID,-0.101885,VALID,19.6575,VALID,87,VALID,0.723722,
2002-07-04, 01:22:00,VALID,919.295,VALID,0,VALID,93.7821,VALID,-0.0679233,VALID,19.6083,VALID,76,VALID,0.494256,
2002-07-04, 01:23:00,VALID,919.272,VALID,0,VALID,93.7312,VALID,-0.0679233,VALID,19.5538,VALID,74,VALID,0.219383,
2002-07-04, 01:24:00,VALID,919.276,VALID,0,VALID,93.8012,VALID,-0.0509425,VALID,19.4788,VALID,71,VALID,0.187711,
2002-07-04, 01:25:00,VALID,919.242,VALID,0,VALID,94.0466,VALID,-0.0679233,VALID,19.437,VALID,70,VALID,0.00102796,
2002-07-04, 01:26:00,VALID,919.243,VALID,0,VALID,94.2551,VALID,-0.0849042,VALID,19.4082,VALID,68,VALID,0,
2002-07-04, 01:27:00,VALID,919.22,VALID,0,VALID,94.4395,VALID,-0.0509425,VALID,19.3821,VALID,61,VALID,0.222656,
2002-07-04, 01:28:00,VALID,919.204,VALID,0,VALID,94.6354,VALID,-0.0849042,VALID,19.3789,VALID,46,VALID,0.429476,
2002-07-04, 01:29:00,VALID,919.181,VALID,0,VALID,94.5718,VALID,-0.0849042,VALID,19.3501,VALID,46,VALID,0.242634,
2002-07-04, 01:30:00,VALID,919.157,VALID,0,VALID,94.6582,VALID,-0.0849042,VALID,19.3178,VALID,46,VALID,0.363867,
2002-07-04, 01:31:00,VALID,919.138,VALID,0,VALID,94.7918,VALID,-0.0509425,VALID,19.2855,VALID,46,VALID,0.441051,
2002-07-04, 01:32:00,VALID,919.123,VALID,0,VALID,94.8719,VALID,-0.0849042,VALID,19.2596,VALID,46,VALID,0.0606618,
2002-07-04, 01:33:00,VALID,919.102,VALID,0,VALID,95.027,VALID,-0.101885,VALID,19.2467,VALID,43,VALID,0.011402,
2002-07-04, 01:34:00,VALID,919.093,VALID,0,VALID,95.0003,VALID,-0.0679233,VALID,19.234,VALID,334,VALID,0.230363,
2002-07-04, 01:35:00,VALID,919.099,VALID,0,VALID,95.0791,VALID,-0.0849042,VALID,19.2179,VALID,307,VALID,0.000411184,
2002-07-04, 01:36:00,VALID,919.084,VALID,0,VALID,95.1949,VALID,-0.118866,VALID,19.2042,VALID,74,VALID,0.59016,
2002-07-04, 01:37:00,VALID,919.052,VALID,0,VALID,95.1949,VALID,-0.0849042,VALID,19.2171,VALID,76,VALID,0.707854,
2002-07-04, 01:38:00,VALID,919.019,VALID,0,VALID,94.98,VALID,-0.0679233,VALID,19.2107,VALID,58,VALID,0.683699,
2002-07-04, 01:39:00,VALID,919.006,VALID,0,VALID,94.7994,VALID,-0.101885,VALID,19.1948,VALID,36,VALID,0.695089,
2002-07-04, 01:40:00,VALID,918.998,VALID,0,VALID,94.7498,VALID,-0.0849042,VALID,19.1662,VALID,36,VALID,0.318164,
2002-07-04, 01:41:00,VALID,918.982,VALID,0,VALID,94.7612,VALID,-0.0849042,VALID,19.124,VALID,36,VALID,0.146544,
2002-07-04, 01:42:00,VALID,918.95,VALID,0,VALID,94.8553,VALID,-0.0679233,VALID,19.1043,VALID,36,VALID,0.189338,
2002-07-04, 01:43:00,VALID,918.928,VALID,0,VALID,95.0028,VALID,-0.0849042,VALID,19.0879,VALID,38,VALID,0.553421,
2002-07-04, 01:44:00,VALID,918.9,VALID,0,VALID,95.0308,VALID,-0.0849042,VALID,19.0594,VALID,43,VALID,0.548353,
2002-07-04, 01:45:00,VALID,918.89,VALID,0,VALID,95.0295,VALID,-0.0849042,VALID,19.0238,VALID,44,VALID,0.520354,
2002-07-04, 01:46:00,VALID,918.87,VALID,0,VALID,95.1796,VALID,-0.0849042,VALID,18.9881,VALID,44,VALID,0.406461,
2002-07-04, 01:47:00,VALID,918.863,VALID,0,VALID,95.2355,VALID,0.0169808,VALID,18.9707,VALID,38,VALID,0.415913,
2002-07-04, 01:48:00,VALID,918.857,VALID,0,VALID,95.0842,VALID,-0.0169808,VALID,18.9391,VALID,19,VALID,0.755912,
2002-07-04, 01:49:00,VALID,918.826,VALID,0,VALID,95.5344,VALID,0.0339617,VALID,18.919,VALID,2,VALID,0.652455,
2002-07-04, 01:50:00,VALID,918.817,VALID,0,VALID,95.7493,VALID,0.0169808,VALID,18.9156,VALID,4,VALID,0.15625,
2002-07-04, 01:51:00,VALID,918.813,VALID,0,VALID,95.9311,VALID,0.0339617,VALID,18.9319,VALID,4,VALID,0.291193,
2002-07-04, 01:52:00,VALID,918.785,VALID,0,VALID,95.8879,VALID,0.0679233,VALID,18.9453,VALID,5,VALID,0.527574,
2002-07-04, 01:53:00,VALID,918.789,VALID,0,VALID,95.6221,VALID,0.0169808,VALID,18.9223,VALID,13,VALID,0.732052,
2002-07-04, 01:54:00,VALID,918.794,VALID,0,VALID,95.6997,VALID,0.0339617,VALID,18.887,VALID,24,VALID,0.600507,
2002-07-04, 01:55:00,VALID,918.785,VALID,0,VALID,95.9209,VALID,0.0169808,VALID,18.8997,VALID,28,VALID,0.503495,
2002-07-04, 01:56:00,VALID,918.796,VALID,0,VALID,95.9337,VALID,0.0509425,VALID,18.9059,VALID,28,VALID,0.222128,
2002-07-04, 01:57:00,VALID,918.821,VALID,0,VALID,95.8612,VALID,0.0169808,VALID,18.9031,VALID,5,VALID,0.348684,
2002-07-04, 01:58:00,VALID,918.805,VALID,0,VALID,95.851,VALID,0.0339617,VALID,18.9156,VALID,25,VALID,0.575802,
2002-07-04, 01:59:00,VALID,918.789,VALID,0,VALID,95.5064,VALID,-0.0169808,VALID,18.9841,VALID,38,VALID,1.13661,
2002-07-04, 02:00:00,VALID,918.762,VALID,0,VALID,94.9571,VALID,0.0339617,VALID,19.0549,VALID,58,VALID,0.651758,
2002-07-04, 02:01:00,VALID,918.77,VALID,0,VALID,94.6519,VALID,0,VALID,19.1098,VALID,58,VALID,0.328598,
2002-07-04, 02:02:00,VALID,918.764,VALID,0,VALID,94.3645,VALID,0.0339617,VALID,19.1357,VALID,70,VALID,0.399357,
2002-07-04, 02:03:00,VALID,918.749,VALID,0,VALID,94.2335,VALID,0,VALID,19.1362,VALID,67,VALID,0.571791,
2002-07-04, 02:04:00,VALID,918.74,VALID,0,VALID,94.2768,VALID,-0.101885,VALID,19.1563,VALID,61,VALID,0.660473,
2002-07-04, 02:05:00,VALID,918.734,VALID,0,VALID,94.2132,VALID,-0.0679233,VALID,19.1699,VALID,60,VALID,0.559211,
2002-07-04, 02:06:00,VALID,918.73,VALID,0,VALID,94.0771,VALID,-0.101885,VALID,19.1597,VALID,65,VALID,0.714316,
2002-07-04, 02:07:00,VALID,918.701,VALID,0,VALID,94.0212,VALID,-0.101885,VALID,19.1466,VALID,85,VALID,0.772615,
2002-07-04, 02:08:00,VALID,918.691,VALID,0,VALID,94.1204,VALID,-0.0679233,VALID,19.1369,VALID,72,VALID,0.714105,
2002-07-04, 02:09:00,VALID,918.678,VALID,0,VALID,94.0847,VALID,-0.0169808,VALID,19.1592,VALID,49,VALID,0.353795,
2002-07-04, 02:10:00,VALID,918.675,VALID,0,VALID,93.9589,VALID,-0.0849042,VALID,19.1982,VALID,39,VALID,0.462305,
2002-07-04, 02:11:00,VALID,918.659,VALID,0,VALID,93.8609,VALID,-0.0679233,VALID,19.2082,VALID,42,VALID,0.993134,
2002-07-04, 02:12:00,VALID,918.628,VALID,0,VALID,93.9055,VALID,-0.0849042,VALID,19.2077,VALID,48,VALID,1.14177,
2002-07-04, 02:13:00,VALID,918.62,VALID,0,VALID,93.6956,VALID,-0.0339617,VALID,19.2109,VALID,33,VALID,0.877323,
2002-07-04, 02:14:00,VALID,918.622,VALID,0,VALID,93.6969,VALID,-0.0679233,VALID,19.1913,VALID,31,VALID,0.942568,
2002-07-04, 02:15:00,VALID,918.617,VALID,0,VALID,93.8075,VALID,-0.0509425,VALID,19.1627,VALID,22,VALID,0.765008,
2002-07-04, 02:16:00,VALID,918.597,VALID,0,VALID,93.9741,VALID,-0.0509425,VALID,19.1341,VALID,14,VALID,0.380068,
2002-07-04, 02:17:00,VALID,918.599,VALID,0,VALID,94.348,VALID,-0.0509425,VALID,19.1173,VALID,349,VALID,0.543174,
2002-07-04, 02:18:00,VALID,918.579,VALID,0,VALID,94.8846,VALID,-0.0679233,VALID,19.1371,VALID,5,VALID,0.8144,
2002-07-04, 02:19:00,VALID,918.545,VALID,0,VALID,95.0143,VALID,-0.101885,VALID,19.156,VALID,22,VALID,0.850223,
2002-07-04, 02:20:00,VALID,918.504,VALID,0,VALID,94.863,VALID,-0.0339617,VALID,19.1563,VALID,20,VALID,0.876562,
2002-07-04, 02:21:00,VALID,918.477,VALID,0,VALID,94.7969,VALID,-0.0849042,VALID,19.1371,VALID,21,VALID,0.932765,
2002-07-04, 02:22:00,VALID,918.441,VALID,0,VALID,94.821,VALID,-0.0339617,VALID,19.1173,VALID,9,VALID,0.978401,
2002-07-04, 02:23:00,VALID,918.423,VALID,0,VALID,95.0766,VALID,-0.0679233,VALID,19.1505,VALID,8,VALID,1.10114,
2002-07-04, 02:24:00,VALID,918.404,VALID,0,VALID,95.0639,VALID,-0.0849042,VALID,19.1851,VALID,6,VALID,0.971706,
2002-07-04, 02:25:00,VALID,918.405,VALID,0,VALID,94.896,VALID,-0.0679233,VALID,19.2467,VALID,7,VALID,1.01871,
2002-07-04, 02:26:00,VALID,918.415,VALID,0,VALID,94.5743,VALID,-0.0509425,VALID,19.2917,VALID,360,VALID,0.523438,
2002-07-04, 02:27:00,VALID,918.404,VALID,0,VALID,94.1865,VALID,-0.0679233,VALID,19.3242,VALID,324,VALID,0.353002,
2002-07-04, 02:28:00,VALID,918.377,VALID,0,VALID,93.6804,VALID,-0.0509425,VALID,19.3535,VALID,304,VALID,0.16913,
2002-07-04, 02:29:00,VALID,918.358,VALID,0,VALID,93.2773,VALID,-0.0509425,VALID,19.3593,VALID,343,VALID,0.337277,
2002-07-04, 02:30:00,VALID,918.359,VALID,0,VALID,92.1901,VALID,-0.101885,VALID,19.3732,VALID,16,VALID,1.17637,
2002-07-04, 02:31:00,VALID,918.353,VALID,0,VALID,91.2987,VALID,-0.0509425,VALID,19.4763,VALID,10,VALID,1.13187,
2002-07-04, 02:32:00,VALID,918.354,VALID,0,VALID,91.0889,VALID,-0.101885,VALID,19.5441,VALID,11,VALID,1.20106,
2002-07-04, 02:33:00,VALID,918.349,VALID,0,VALID,90.1161,VALID,-0.0339617,VALID,19.6142,VALID,13,VALID,1.24683,
2002-07-04, 02:34:00,VALID,918.347,VALID,0,VALID,89.5502,VALID,0,VALID,19.7141,VALID,20,VALID,0.931166,
2002-07-04, 02:35:00,VALID,918.318,VALID,0,VALID,89.4943,VALID,0,VALID,19.7333,VALID,24,VALID,1.10711,
2002-07-04, 02:36:00,VALID,918.323,VALID,0,VALID,89.7778,VALID,0.0169808,VALID,19.7131,VALID,22,VALID,0.923986,
2002-07-04, 02:37:00,VALID,918.315,VALID,0,VALID,89.3722,VALID,0.0169808,VALID,19.6913,VALID,13,VALID,1.24815,
2002-07-04, 02:38:00,VALID,918.314,VALID,0,VALID,88.7516,VALID,0,VALID,19.7527,VALID,7,VALID,1.0872,
2002-07-04, 02:39:00,VALID,918.302,VALID,0,VALID,88.0179,VALID,0,VALID,19.8724,VALID,11,VALID,0.809152,
2002-07-04, 02:40:00,VALID,918.293,VALID,0,VALID,87.6186,VALID,0,VALID,19.9433,VALID,359,VALID,0.423438,
2002-07-04, 02:41:00,VALID,918.294,VALID,0,VALID,87.4635,VALID,0.0339617,VALID,19.995,VALID,2,VALID,0.419271,
2002-07-04, 02:42:00,VALID,918.276,VALID,0,VALID,87.4215,VALID,0.0169808,VALID,20.0049,VALID,7,VALID,0.6767,
2002-07-04, 02:43:00,VALID,918.253,VALID,0,VALID,87.3719,VALID,0.0169808,VALID,19.995,VALID,27,VALID,0.810389,
2002-07-04, 02:44:00,VALID,918.231,VALID,0,VALID,87.494,VALID,0,VALID,19.9915,VALID,29,VALID,0.520059,
2002-07-04, 02:45:00,VALID,918.212,VALID,0,VALID,87.6072,VALID,0.0169808,VALID,19.9619,VALID,20,VALID,0.632813,
2002-07-04, 02:46:00,VALID,918.206,VALID,0,VALID,88.1349,VALID,0.0169808,VALID,19.9105,VALID,14,VALID,0.620777,
2002-07-04, 02:47:00,VALID,918.2,VALID,0,VALID,88.7631,VALID,0.0509425,VALID,19.8168,VALID,20,VALID,0.528372,
2002-07-04, 02:48:00,VALID,918.189,VALID,0,VALID,89.1217,VALID,-0.0169808,VALID,19.7305,VALID,20,VALID,0.624578,
2002-07-04, 02:49:00,VALID,918.191,VALID,0,VALID,89.4078,VALID,-0.0849042,VALID,19.6634,VALID,14,VALID,1.02656,
2002-07-04, 02:50:00,VALID,918.191,VALID,0,VALID,89.0657,VALID,-0.101885,VALID,19.6637,VALID,5,VALID,0.810352,
2002-07-04, 02:51:00,VALID,918.201,VALID,0,VALID,88.7491,VALID,-0.0849042,VALID,19.6766,VALID,8,VALID,0.816525,
2002-07-04, 02:52:00,VALID,918.192,VALID,0,VALID,88.3091,VALID,-0.0849042,VALID,19.7512,VALID,16,VALID,0.839844,
2002-07-04, 02:53:00,VALID,918.189,VALID,0,VALID,88.2455,VALID,-0.0849042,VALID,19.7889,VALID,13,VALID,0.553209,
2002-07-04, 02:54:00,VALID,918.202,VALID,0,VALID,88.3307,VALID,-0.101885,VALID,19.7956,VALID,13,VALID,0.320946,
2002-07-04, 02:55:00,VALID,918.209,VALID,0,VALID,87.7661,VALID,-0.101885,VALID,19.8414,VALID,345,VALID,0.656044,
2002-07-04, 02:56:00,VALID,918.197,VALID,0,VALID,86.8557,VALID,-0.118866,VALID,20.0417,VALID,354,VALID,0.63978,
2002-07-04, 02:57:00,VALID,918.209,VALID,0,VALID,86.3216,VALID,-0.0849042,VALID,20.1416,VALID,343,VALID,0.398849,
2002-07-04, 02:58:00,VALID,918.232,VALID,0,VALID,86.1029,VALID,-0.0849042,VALID,20.1836,VALID,348,VALID,0.343117,
2002-07-04, 02:59:00,VALID,918.219,VALID,0,VALID,86.1563,VALID,-0.101885,VALID,20.1675,VALID,5,VALID,0.997321,
2002-07-04, 03:00:00,VALID,918.198,VALID,0,VALID,85.5332,VALID,-0.101885,VALID,20.2192,VALID,356,VALID,0.885547,
2002-07-04, 03:01:00,VALID,918.171,VALID,0,VALID,85.4277,VALID,-0.101885,VALID,20.3005,VALID,20,VALID,0.680398,
2002-07-04, 03:02:00,VALID,918.161,VALID,0,VALID,85.4239,VALID,-0.0849042,VALID,20.2482,VALID,357,VALID,1.03194,
2002-07-04, 03:03:00,VALID,918.143,VALID,0,VALID,85.7265,VALID,-0.0339617,VALID,20.2641,VALID,20,VALID,0.466005,
2002-07-04, 03:04:00,VALID,918.131,VALID,0,VALID,86.169,VALID,0.0169808,VALID,20.1953,VALID,20,VALID,0.348818,
2002-07-04, 03:05:00,VALID,918.149,VALID,0,VALID,86.8086,VALID,0.0169808,VALID,20.0685,VALID,16,VALID,0.671669,
2002-07-04, 03:06:00,VALID,918.141,VALID,0,VALID,87.3592,VALID,0.0169808,VALID,19.9554,VALID,11,VALID,0.590372,
2002-07-04, 03:07:00,VALID,918.135,VALID,0,VALID,88.0217,VALID,0,VALID,19.8598,VALID,32,VALID,0.933183,
2002-07-04, 03:08:00,VALID,918.13,VALID,0,VALID,88.1705,VALID,0.0169808,VALID,19.7715,VALID,32,VALID,0.741976,
2002-07-04, 03:09:00,VALID,918.123,VALID,0,VALID,88.1413,VALID,0,VALID,19.7517,VALID,33,VALID,0.500223,
2002-07-04, 03:10:00,VALID,918.109,VALID,0,VALID,87.9378,VALID,0,VALID,19.7459,VALID,6,VALID,0.625977,
2002-07-04, 03:11:00,VALID,918.116,VALID,0,VALID,87.7738,VALID,0.0339617,VALID,19.7912,VALID,18,VALID,0.732955,
2002-07-04, 03:12:00,VALID,918.106,VALID,0,VALID,87.8577,VALID,0.0169808,VALID,19.778,VALID,27,VALID,0.660616,
2002-07-04, 03:13:00,VALID,918.106,VALID,0,VALID,88.1642,VALID,0,VALID,19.74,VALID,35,VALID,0.480785,
2002-07-04, 03:14:00,VALID,918.094,VALID,0,VALID,88.3511,VALID,0.0169808,VALID,19.688,VALID,35,VALID,0.526394,
2002-07-04, 03:15:00,VALID,918.082,VALID,0,VALID,88.3244,VALID,0.0339617,VALID,19.6883,VALID,35,VALID,0.363692,
2002-07-04, 03:16:00,VALID,918.074,VALID,0,VALID,88.4388,VALID,0.0169808,VALID,19.6619,VALID,35,VALID,0.371622,
2002-07-04, 03:17:00,VALID,918.077,VALID,0,VALID,88.6563,VALID,0.0169808,VALID,19.6329,VALID,31,VALID,0.424342,
2002-07-04, 03:18:00,VALID,918.081,VALID,0,VALID,88.8076,VALID,0.0339617,VALID,19.6135,VALID,13,VALID,0.38788,
2002-07-04, 03:19:00,VALID,918.077,VALID,0,VALID,89.0746,VALID,0.0339617,VALID,19.5906,VALID,13,VALID,0.345313,
2002-07-04, 03:20:00,VALID,918.088,VALID,0,VALID,89.4625,VALID,0,VALID,19.5357,VALID,13,VALID,0.136328,
2002-07-04, 03:21:00,VALID,918.094,VALID,0,VALID,89.8211,VALID,0,VALID,19.4746,VALID,13,VALID,0,
2002-07-04, 03:22:00,VALID,918.089,VALID,0,VALID,90.1186,VALID,0,VALID,19.4291,VALID,13,VALID,0,
2002-07-04, 03:23:00,VALID,918.093,VALID,0,VALID,90.2203,VALID,0,VALID,19.404,VALID,13,VALID,0,
2002-07-04, 03:24:00,VALID,918.105,VALID,0,VALID,90.4289,VALID,0,VALID,19.368,VALID,13,VALID,0,
2002-07-04, 03:25:00,VALID,918.087,VALID,0,VALID,90.6171,VALID,0,VALID,19.3424,VALID,13,VALID,0,
2002-07-04, 03:26:00,VALID,918.089,VALID,0,VALID,90.8625,VALID,0.0169808,VALID,19.2895,VALID,13,VALID,0,
2002-07-04, 03:27:00,VALID,918.097,VALID,0,VALID,91.0176,VALID,0,VALID,19.2515,VALID,13,VALID,0,
2002-07-04, 03:28:00,VALID,918.104,VALID,0,VALID,91.1257,VALID,0.0339617,VALID,19.2231,VALID,13,VALID,0,
2002-07-04, 03:29:00,VALID,918.125,VALID,0,VALID,91.2999,VALID,0,VALID,19.1936,VALID,21,VALID,0.308259,
2002-07-04, 03:30:00,VALID,918.132,VALID,0,VALID,91.291,VALID,0.0169808,VALID,19.1613,VALID,360,VALID,0.00195313,
2002-07-04, 03:31:00,VALID,918.126,VALID,0,VALID,91.4589,VALID,0.0169808,VALID,19.1253,VALID,360,VALID,0.0357481,
2002-07-04, 03:32:00,VALID,918.102,VALID,0,VALID,91.5492,VALID,0.0169808,VALID,19.1223,VALID,81,VALID,0.41682,
2002-07-04, 03:33:00,VALID,918.088,VALID,0,VALID,90.9808,VALID,0,VALID,19.168,VALID,77,VALID,0.00802365,
2002-07-04, 03:34:00,VALID,918.103,VALID,0,VALID,90.6285,VALID,-0.0339617,VALID,19.2234,VALID,66,VALID,0.135769,